Tracking 18032 objects as of 25-March-2017
HD Live streaming from Space Station
objects crossing your sky now

INSAT 1C

Track INSAT 1C now!
INSAT 1C is classified as:


NORAD ID: 19330
Int'l Code: 1988-063A
Perigee: 35,767.0 km
Apogee: 35,807.9 km
Inclination: 14.9 °
Period: 1,435.8 minutes
Semi major axis: 42158 km
RCS: 1.9952 m2 (large)
Launch date: July 21, 1988
Source: India (IND)
Launch site: FRENCH GUIANA (FRGUI)
Your satellite tracking list
Your tracking list is empty





NASA's NSSDC Master Catalog

Two Line Element Set (TLE):
1 19330U 88063A   17082.80126679 -.00000264 +00000-0 +00000-0 0  9991
2 19330 014.9330 357.0742 0004852 039.3965 165.0945 01.00294235086527
Source of the keplerian elements: AFSPC